• In Hungary
  • List of Countries
  • For 7 days
  • Water Temperature
  • Satellite Maps
  • Weather Map
  • News
  • Weather Widgets
  • user-avatar
    Login

    Hourly Weather Puerto Ayacucho

    Today, 25 February, Sunday

    Time Temperature Precipitation Wind Pressure Humidity
    00:00 +28°C° 0 mm 2 mps 752 mmHg 61%
    01:00 +28°C° 0 mm 2 mps 752 mmHg 63%
    02:00 +27°C° 0 mm 2 mps 752 mmHg 64%
    03:00 +27°C° 0 mm 2 mps 752 mmHg 65%
    04:00 +27°C° 0 mm 2 mps 751 mmHg 65%
    05:00 +27°C° 0 mm 2 mps 752 mmHg 65%
    06:00 +28°C° 0 mm 3 mps 752 mmHg 64%
    07:00 +28°C° 0 mm 3 mps 753 mmHg 63%
    08:00 +30°C° 0.1 mm 3 mps 753 mmHg 57%
    09:00 +33°C° 0.1 mm 3 mps 753 mmHg 51%
    10:00 +36°C° 0.1 mm 2 mps 753 mmHg 44%
    11:00 +37°C° 0.2 mm 2 mps 752 mmHg 42%
    12:00 +38°C° 0.2 mm 2 mps 752 mmHg 39%
    13:00 +39°C° 0.2 mm 2 mps 751 mmHg 37%
    14:00 +39°C° 0.2 mm 2 mps 750 mmHg 37%
    15:00 +38°C° 0.2 mm 2 mps 750 mmHg 36%
    16:00 +38°C° 0.2 mm 2 mps 749 mmHg 36%
    17:00 +37°C° 0.2 mm 2 mps 750 mmHg 40%
    18:00 +35°C° 0.2 mm 2 mps 750 mmHg 44%
    19:00 +34°C° 0.2 mm 3 mps 751 mmHg 48%
    20:00 +33°C° 0 mm 3 mps 751 mmHg 51%
    21:00 +31°C° 0 mm 3 mps 752 mmHg 53%
    22:00 +30°C° 0 mm 3 mps 752 mmHg 56%
    23:00 +30°C° 0.2 mm 3 mps 752 mmHg 59%

    Tomorrow, 26 February, Monday

    Time Temperature Precipitation Wind Pressure Humidity
    00:00 +29°C° 0.2 mm 3 mps 752 mmHg 61%
    01:00 +28°C° 0.2 mm 3 mps 751 mmHg 63%
    02:00 +28°C° 0 mm 3 mps 751 mmHg 63%
    03:00 +28°C° 0 mm 3 mps 751 mmHg 63%
    04:00 +28°C° 0 mm 3 mps 751 mmHg 63%
    05:00 +28°C° 0 mm 3 mps 752 mmHg 63%
    06:00 +28°C° 0 mm 4 mps 752 mmHg 62%
    07:00 +29°C° 0 mm 4 mps 753 mmHg 62%
    08:00 +31°C° 0 mm 3 mps 753 mmHg 55%
    09:00 +34°C° 0 mm 3 mps 753 mmHg 48%
    10:00 +37°C° 0 mm 3 mps 753 mmHg 41%
    11:00 +38°C° 0.1 mm 3 mps 752 mmHg 39%
    12:00 +38°C° 0.1 mm 3 mps 751 mmHg 37%
    13:00 +39°C° 0.1 mm 3 mps 750 mmHg 35%
    14:00 +39°C° 0.1 mm 3 mps 750 mmHg 35%
    15:00 +39°C° 0.1 mm 3 mps 749 mmHg 35%
    16:00 +39°C° 0.1 mm 3 mps 749 mmHg 34%
    17:00 +37°C° 0.1 mm 3 mps 749 mmHg 38%
    18:00 +35°C° 0.1 mm 3 mps 750 mmHg 43%
    19:00 +34°C° 0.1 mm 3 mps 750 mmHg 47%
    20:00 +33°C° 0 mm 3 mps 751 mmHg 50%
    21:00 +32°C° 0 mm 4 mps 751 mmHg 52%
    22:00 +30°C° 0 mm 4 mps 752 mmHg 55%
    23:00 +30°C° 0 mm 4 mps 751 mmHg 57%

    Day after tomorrow, 27 February, Tuesday

    Time Temperature Precipitation Wind Pressure Humidity
    00:00 +29°C° 0 mm 4 mps 751 mmHg 59%
    01:00 +29°C° 0 mm 3 mps 751 mmHg 61%
    02:00 +28°C° 0 mm 4 mps 751 mmHg 62%
    03:00 +28°C° 0 mm 4 mps 751 mmHg 63%
    04:00 +28°C° 0 mm 4 mps 751 mmHg 64%
    05:00 +28°C° 0 mm 4 mps 751 mmHg 64%
    06:00 +28°C° 0 mm 4 mps 752 mmHg 64%
    07:00 +29°C° 0 mm 4 mps 752 mmHg 64%
    08:00 +32°C° 0 mm 4 mps 752 mmHg 56%
    09:00 +34°C° 0 mm 3 mps 752 mmHg 49%
    10:00 +37°C° 0 mm 3 mps 753 mmHg 41%
    11:00 +38°C° 0.1 mm 3 mps 752 mmHg 39%
    12:00 +38°C° 0.1 mm 3 mps 750 mmHg 37%
    13:00 +39°C° 0.1 mm 3 mps 749 mmHg 35%
    14:00 +39°C° 0.2 mm 3 mps 749 mmHg 36%
    15:00 +39°C° 0.2 mm 3 mps 748 mmHg 36%
    16:00 +38°C° 0.2 mm 3 mps 748 mmHg 36%
    17:00 +37°C° 0 mm 3 mps 748 mmHg 40%
    18:00 +35°C° 0 mm 3 mps 749 mmHg 43%
    19:00 +34°C° 0 mm 3 mps 749 mmHg 46%
    20:00 +33°C° 0 mm 3 mps 750 mmHg 48%
    21:00 +33°C° 0 mm 3 mps 750 mmHg 49%
    22:00 +31°C° 0 mm 3 mps 751 mmHg 51%
    23:00 +30°C° 0 mm 2 mps 750 mmHg 53%

    28 February, Wednesday

    Time Temperature Precipitation Wind Pressure Humidity
    00:00 +30°C° 0 mm 2 mps 750 mmHg 55%
    01:00 +29°C° 0 mm 2 mps 750 mmHg 57%
    02:00 +29°C° 0 mm 2 mps 750 mmHg 58%
    03:00 +29°C° 0 mm 3 mps 750 mmHg 58%
    04:00 +28°C° 0 mm 3 mps 750 mmHg 59%
    05:00 +29°C° 0 mm 3 mps 750 mmHg 59%
    06:00 +29°C° 0 mm 3 mps 751 mmHg 59%
    07:00 +29°C° 0 mm 4 mps 751 mmHg 60%
    08:00 +31°C° 0 mm 3 mps 752 mmHg 53%
    09:00 +35°C° 0 mm 3 mps 752 mmHg 47%
    10:00 +37°C° 0 mm 3 mps 752 mmHg 40%
    11:00 +38°C° 0.1 mm 3 mps 751 mmHg 38%
    12:00 +38°C° 0.1 mm 3 mps 750 mmHg 37%
    13:00 +39°C° 0.1 mm 3 mps 749 mmHg 35%
    14:00 +39°C° 0.2 mm 3 mps 749 mmHg 35%
    15:00 +39°C° 0.2 mm 3 mps 748 mmHg 36%
    16:00 +38°C° 0.2 mm 3 mps 748 mmHg 36%
    17:00 +37°C° 0 mm 3 mps 748 mmHg 39%
    18:00 +36°C° 0 mm 3 mps 749 mmHg 42%
    19:00 +34°C° 0 mm 3 mps 750 mmHg 45%
    20:00 +34°C° 0 mm 3 mps 750 mmHg 46%
    21:00 +33°C° 0 mm 3 mps 751 mmHg 48%
    22:00 +31°C° 0 mm 3 mps 751 mmHg 49%
    23:00 +31°C° 0 mm 3 mps 751 mmHg 51%

    1 March, Thursday

    Time Temperature Precipitation Wind Pressure Humidity
    00:00 +30°C° 0 mm 2 mps 750 mmHg 53%
    01:00 +30°C° 0 mm 2 mps 750 mmHg 55%
    02:00 +29°C° 0 mm 3 mps 750 mmHg 56%
    03:00 +29°C° 0 mm 3 mps 750 mmHg 57%
    04:00 +28°C° 0 mm 3 mps 750 mmHg 58%
    05:00 +28°C° 0 mm 3 mps 751 mmHg 58%
    06:00 +29°C° 0 mm 3 mps 751 mmHg 59%
    07:00 +29°C° 0 mm 4 mps 752 mmHg 59%
    08:00 +31°C° 0 mm 3 mps 752 mmHg 53%
    09:00 +34°C° 0 mm 3 mps 752 mmHg 47%
    10:00 +36°C° 0 mm 3 mps 752 mmHg 41%
    11:00 +37°C° 0 mm 3 mps 751 mmHg 40%
    12:00 +37°C° 0 mm 3 mps 750 mmHg 38%
    13:00 +38°C° 0 mm 3 mps 749 mmHg 37%
    14:00 +38°C° 0.2 mm 3 mps 749 mmHg 37%
    15:00 +38°C° 0.2 mm 3 mps 749 mmHg 38%
    16:00 +38°C° 0.2 mm 2 mps 749 mmHg 38%
    17:00 +36°C° 0.2 mm 2 mps 749 mmHg 42%
    18:00 +35°C° 0.2 mm 2 mps 750 mmHg 47%
    19:00 +33°C° 0.2 mm 3 mps 750 mmHg 51%
    20:00 +31°C° 0 mm 2 mps 751 mmHg 52%
    21:00 +31°C° 0 mm 2 mps 751 mmHg 54%
    22:00 +30°C° 0 mm 2 mps 752 mmHg 55%
    23:00 +30°C° 0 mm 2 mps 751 mmHg 56%

    2 March, Friday

    Time Temperature Precipitation Wind Pressure Humidity
    00:00 +29°C° 0 mm 2 mps 751 mmHg 58%
    01:00 +29°C° 0 mm 2 mps 750 mmHg 59%
    02:00 +28°C° 0 mm 2 mps 750 mmHg 60%
    03:00 +28°C° 0 mm 2 mps 750 mmHg 61%
    04:00 +28°C° 0 mm 2 mps 750 mmHg 61%
    05:00 +28°C° 0 mm 2 mps 751 mmHg 61%
    06:00 +29°C° 0 mm 2 mps 752 mmHg 60%
    07:00 +29°C° 0 mm 3 mps 752 mmHg 59%
    08:00 +31°C° 0 mm 2 mps 752 mmHg 53%
    09:00 +34°C° 0 mm 2 mps 752 mmHg 47%
    10:00 +37°C° 0 mm 2 mps 752 mmHg 41%
    11:00 +37°C° 0.2 mm 2 mps 751 mmHg 41%
    12:00 +38°C° 0.2 mm 2 mps 750 mmHg 41%
    13:00 +39°C° 0.2 mm 2 mps 749 mmHg 40%
    14:00 +38°C° 0.3 mm 2 mps 749 mmHg 41%
    15:00 +37°C° 0.3 mm 1 mps 748 mmHg 42%
    16:00 +37°C° 0.3 mm 1 mps 748 mmHg 43%
    17:00 +36°C° 0.1 mm 2 mps 749 mmHg 47%
    18:00 +35°C° 0.1 mm 2 mps 749 mmHg 52%
    19:00 +32°C° 0.1 mm 2 mps 750 mmHg 56%
    20:00 +31°C° 0.6 mm 2 mps 750 mmHg 61%
    21:00 +30°C° 0.6 mm 2 mps 750 mmHg 67%
    22:00 +29°C° 0.6 mm 2 mps 751 mmHg 73%
    23:00 +28°C° 0.2 mm 2 mps 750 mmHg 74%
    Show more